Location: Chandolas
(44.4033°N, 4.2533°E)
Time: 18:26:39
(UTC+00:00)

Cosmos 2369 - Visible Passes

Search period start: 27 February 2021 00:00
Search period end: 09 March 2021 00:00
Orbit: 839 x 856 km, 71.0° (Epoch: 26 February)

Date Brightness Start Highest point End Pass type
(mag) Time Alt. Az. Time Alt. Az. Time Alt. Az.
27 Feb 5.9 18:58:00 10° WSW 19:02:35 25° NW 19:07:12 10° N visible
28 Feb 5.9 18:44:40 10° WSW 18:49:17 25° NW 18:53:56 10° N visible
01 Mar 5.8 18:31:20 10° WSW 18:35:58 25° NW 18:40:39 10° N visible
02 Mar 5.8 18:17:59 10° WSW 18:22:40 26° NW 18:27:23 10° N visible
03 Mar 5.8 18:04:39 10° WSW 18:09:21 26° NW 18:14:06 10° N visible
